Location: Lussas
(44.6119°N, 4.4726°E)
Time: 14:22:15
(UTC+00:00)

Cosmos 405 Rocket - Pass Details

Date: 26 November 2020
Orbit: 489 x 554 km, 81.3° (Epoch: 27 January)

Event Time Altitude Azimuth Distance (km) Brightness Sun altitude
Rises 06:14:18 0° 203° (SSW) 2,551 6.2 -7.1°
Reaches altitude 10° 06:16:27 10° 210° (SSW) 1,676 5.2 -6.7°
Maximum altitude 06:19:58 44° 284° (WNW) 690 2.9 -6.1°
Drops below altitude 10° 06:23:34 10° 358° (N) 1,707 5.1 -5.6°
Sets 06:25:47 0° 5° (N) 2,605 6.1 -5.2°
